Regional Weather Roundup
Issued by NWS

Home | Current Version | Previous Version | Graphics & Text | Print | Product List | Glossary On
Versions: 1 2 3 4 5 6 7 8 9 10 11 12 13 14 15 16 17 18 19 20 21 22 23 24 25 26 27 28 29 30 31 32 33 34 35 36 37 38 39 40 41 42 43 44 45 46 47 48 49 50
000
ASUS43 KDMX 062007
RWRIA

WEATHER ROUNDUP FOR IOWA
NATIONAL WEATHER SERVICE DES MOINES IA
300 PM CDT WED MAY 06 2015

NOTE: "FAIR" INDICATES FEW OR NO CLOUDS BELOW 12,000 FEET WITH NO
SIGNIFICANT WEATHER AND/OR OBSTRUCTIONS TO VISIBILITY.

* - THESE STATIONS ARE NOT NWS STATIONS...THUS NOT UNDER NWS
QUALITY CONTROL.  THEY ALSO DO NOT REPORT WEATHER SUCH
AS PRECIPITATION OR FOG.

IAZ001>003-012>014-020>022-031>034-043>046-062100-
   NORTHWEST IOWA

CITY           SKY/WX    TMP DP  RH WIND       PRES   REMARKS
CARROLL *      CLOUDY    73  61  64 S25G36    29.86F
CHEROKEE *     CLOUDY    72  59  64 S20G30    29.82S
DENISON *      PTSUNNY   68  68 100 S15       29.83S
LE MARS *      CLOUDY    72  59  64 S28G37    29.79S
ORANGE CITY *  PTSUNNY   72  55  56 S20G31    29.79S
SHELDON *      CLOUDY    73  64  73 S30G37    29.78F
SIOUX CITY     LGT RAIN  66  61  84 S22G32    29.80R
SPENCER        PTSUNNY   74  63  68 S24G36    29.82F
STORM LAKE *   PTSUNNY   73  57  56 S31       29.84S
$$

IAZ055>058-069>071-079>083-090>094-062100-
   SOUTHWEST IOWA

CITY           SKY/WX    TMP DP  RH WIND       PRES   REMARKS
ATLANTIC *     CLOUDY    73  59  60 S23G38    29.87F
AUDUBON *      SUNNY     73  63  68 S20G29    29.88F
CLARINDA *     PTSUNNY   70  63  78 S16G22    29.91F
COUNCIL BLFS * CLOUDY    70  66  88 S17G28    29.85R
CRESTON *      PTSUNNY   70  61  73 S25       29.93F
HARLAN  *      CLOUDY    72  64  78 S23G35    29.88F
LAMONI         LGT RAIN  68  60  75 S16G24    29.97R
RED OAK *      PTSUNNY   70  61  73 S24G32    29.87F
SHENANDOAH *   CLOUDY    70  63  78 S20G30    29.87F
$$

IAZ047>049-059>061-072>074-084-062100-
   CENTRAL IOWA

CITY           SKY/WX    TMP DP  RH WIND       PRES   REMARKS
AMES           CLOUDY    76  59  55 S21G30    29.91F
ANKENY *       MOSUNNY   75  57  53 S22G29    29.91F
CHARITON *     SUNNY     72  59  64 S25G32    29.96F
DES MOINES     CLOUDY    77  57  50 S20G31    29.92F
GRINNELL*      CLOUDY    77  57  50 S22G28    29.95F
KNOXVILLE *    MOSUNNY   75  55  50 S18G28    29.94F
MARSHALLTOWN   CLOUDY    77  59  53 S25G31    29.92F
PELLA *        CLOUDY    75  61  60 S18G25    29.96F
PERRY *          N/A     75  59  57 S23G29    29.89F
$$

IAZ004>006-015-016-023>025-035-036-062100-
   NORTH CENTRAL IOWA

CITY           SKY/WX    TMP DP  RH WIND       PRES   REMARKS
ALGONA *       PTSUNNY   73  63  68 S26       29.87F
CLARION *      MOSUNNY   75  63  64 S31G38    29.88F
ESTHERVILLE    PTSUNNY   73  61  65 S30G38    29.84F
FORT DODGE *   PTSUNNY   75  61  60 S21G31    29.89F
MASON CITY     CLOUDY    70  64  81 SE21      29.92F
FOREST CITY *  PTSUNNY   70  63  78 S21G26    29.90S
IOWA FALLS *   PTSUNNY   75  59  57 S25G33    29.93S
$$

IAZ007>011-017>019-026>030-037>042-050>054-066-062100-
   NORTHEAST IOWA

CITY           SKY/WX    TMP DP  RH WIND       PRES   REMARKS
CEDAR RAPIDS   MOSUNNY   81  57  43 S18G32    29.96F HX  81
CHARLES CITY * MOSUNNY   75  63  64 SE18G28   29.93F
CLINTON *      SUNNY     81  57  44 S21       30.06F HX  81
DECORAH *      SUNNY     73  61  64 SE16G24   29.99F
DUBUQUE        MOSUNNY   76  61  59 SE20G25   30.03F
MONTICELLO *   SUNNY     79  57  47 S23       30.00F HX  80
OELWEIN *      SUNNY     79  61  53 SE26      29.96F HX  80
WATERLOO       PTSUNNY   78  56  46 S20G29    29.92F
$$

IAZ064-065-067-068-078-062100-
   EAST CENTRAL IOWA

CITY           SKY/WX    TMP DP  RH WIND       PRES   REMARKS
DAVENPORT      MOSUNNY   83  54  36 S20G25    30.03F HX  82
IOWA CITY      MOSUNNY   81  57  43 SE20G31   29.98F HX  81
MT. PLEASANT * MOSUNNY   81  57  44 S24G33    29.98F HX  81
MUSCATINE *    MOSUNNY   82  57  42 S21G32    29.99F HX  82
QUAD CITIES    MOSUNNY   83  52  34 S16G23    30.02F HX  82
$$

IAZ062-063-075>077-085>089-095>099-062100-
   SOUTHEAST IOWA

CITY           SKY/WX    TMP DP  RH WIND       PRES   REMARKS
BURLINGTON     MOSUNNY   82  59  45 S15G26    30.00F HX  82
FAIRFIELD *    LGT RAIN  66  61  82 S12G28    30.00R
FORT MADISON * MOSUNNY   82  59  44 S15G23    30.00F HX  82
KEOKUK *       MOSUNNY   82  59  44 S14G26    29.98F HX  82
OSKALOOSA *    PTSUNNY   73  59  60 SW16      29.98R
CENTERVILLE *  SUNNY     73  59  60 S15G23    30.00F
OTTUMWA        PTSUNNY   75  58  55 SW16G23   29.97S
WASHINGTON *   MOSUNNY   84 -29   1 S23G30    29.96F HX  80
$$

ABBREVIATIONS USED IN REMARKS
   TC - TEMPERATURES IN CELSIUS
  WCI - WIND CHILL INDEX
   HX - HEAT INDEX
  VSB - VISIBILITY
$$



USA.gov is the U.S. government's official web portal to all federal, state and local government web resources and services.